Location: Hepcat Sky Observatory
(29.9800°N, 95.6500°W)
Time: 04:17:23
(UTC-05:00)

Cosmos 2366 rocket - Visible Passes

Search period start: 30 July 2016 00:00
Search period end: 09 August 2016 00:00
Orbit: 956 x 996 km, 82.9° (Epoch: 29 July)

Date Brightness Start Highest point End Pass type
(mag) Time Alt. Az. Time Alt. Az. Time Alt. Az.
30 Jul 3.9 22:22:11 48° SSE 22:23:59 71° E 22:30:17 10° N visible
31 Jul 6.5 00:07:19 10° W 00:09:53 13° WNW 00:12:28 10° NW visible
31 Jul 5.6 21:02:22 12° ESE 21:04:53 15° E 21:08:14 10° NE visible
31 Jul 4.4 22:47:00 35° SSW 22:49:36 60° W 22:55:51 10° N visible
01 Aug 4.8 21:27:06 20° SE 21:30:10 30° E 21:35:34 10° NNE visible
01 Aug 5.6 23:11:43 18° SW 23:15:23 30° WNW 23:20:53 10° NNW visible
02 Aug 4.0 21:51:43 24° SSE 21:55:35 61° E 22:01:49 10° NNE visible
02 Aug 6.5 23:37:53 10° WSW 23:41:22 15° WNW 23:44:53 10° NW visible
03 Aug 5.7 20:34:12 10° ESE 20:36:36 12° E 20:39:00 10° ENE visible
03 Aug 4.2 22:16:11 17° SSW 22:21:10 70° W 22:27:31 10° N visible
04 Aug 5.0 20:56:48 10° SE 21:01:49 26° E 21:06:55 10° NNE visible
04 Aug 5.4 22:41:15 10° SW 22:46:56 36° W 22:52:41 10° NNW visible
05 Aug 4.2 21:21:11 10° SSE 21:27:13 51° E 21:33:20 10° NNE visible
05 Aug 6.3 23:08:42 10° WSW 23:12:51 18° WNW 23:17:03 10° NNW visible
06 Aug 4.1 21:46:29 10° S 21:52:46 82° W 21:59:09 10° N visible
07 Aug 5.2 20:28:51 10° SE 20:33:30 22° E 20:38:11 10° NE visible
07 Aug 5.2 22:12:35 10° SSW 22:18:29 42° W 22:24:27 10° N visible
08 Aug 4.4 20:52:58 10° SSE 20:58:52 44° E 21:04:49 10° NNE visible
08 Aug 6.2 22:39:42 10° SW 22:44:21 21° WNW 22:49:04 10° NNW visible
